Location: Coed Ely
(51.5661°N, 3.4150°W)
Time: 01:53:46
(UTC+00:00)

Cosmos 2297 Rocket - Pass Details

Date: 28 January 2021
Orbit: 841 x 842 km, 71.0° (Epoch: 28 February)

Event Time Altitude Azimuth Distance (km) Brightness Sun altitude
Rises 19:59:18 0° 325° (NW) 3,408 5.9 -28.3°
Reaches altitude 10° 20:03:12 10° 351° (N) 2,471 4.8 -28.9°
Enters shadow 20:04:51 13° 8° (N) 2,266 4.4 -29.2°
